Time,TemperatureF,DewpointF,PressureIn,WindDirection,WindDirectionDegrees,WindSpeedMPH,WindSpeedGustMPH,Humidity,HourlyPrecipIn,Conditions,Clouds,dailyrainin,SoftwareType,DateUTC
2013-02-27 00:01:00,28.6,19.4,30.34,SSE,153,3.5,3.5,68,0.00,RA,,0.00,WeatherDisplay:10.37,2013-02-27 08:01:00,
2013-02-27 00:06:00,28.5,19.3,30.34,SSE,152,2.3,2.3,68,0.00,RA,,0.00,WeatherDisplay:10.37,2013-02-27 08:06:00,
2013-02-27 00:11:00,28.3,19.1,30.34,SSE,153,4.0,4.0,68,0.00,CLR,,0.00,WeatherDisplay:10.37,2013-02-27 08:11:00,
2013-02-27 00:16:00,28.3,19.1,30.34,SSE,154,4.0,4.0,68,0.00,CLR,,0.00,WeatherDisplay:10.37,2013-02-27 08:16:00,
2013-02-27 00:21:00,28.1,19.2,30.34,SSE,153,5.0,5.0,69,0.00,CLR,,0.00,WeatherDisplay:10.37,2013-02-27 08:21:00,
2013-02-27 00:26:00,28.0,19.1,30.34,SSE,153,3.5,3.5,69,0.00,CLR,,0.00,WeatherDisplay:10.37,2013-02-27 08:26:00,
2013-02-27 00:31:00,28.1,18.9,30.34,SSE,160,5.0,5.0,68,0.00,CLR,,0.00,WeatherDisplay:10.37,2013-02-27 08:31:00,
2013-02-27 00:36:00,28.0,18.8,30.33,South,172,4.6,4.6,68,0.00,CLR,,0.00,WeatherDisplay:10.37,2013-02-27 08:36:00,
2013-02-27 00:41:00,28.0,19.1,30.34,South,172,3.5,3.5,69,0.00,CLR,,0.00,WeatherDisplay:10.37,2013-02-27 08:41:00,
2013-02-27 00:46:00,28.1,19.2,30.34,South,171,3.5,3.5,69,0.00,CLR,,0.00,WeatherDisplay:10.37,2013-02-27 08:46:00,
2013-02-27 00:51:00,27.9,19.0,30.34,South,171,3.5,3.5,69,0.00,CLR,,0.00,WeatherDisplay:10.37,2013-02-27 08:51:00,
2013-02-27 00:56:00,27.7,19.2,30.34,South,172,3.5,3.5,70,0.00,CLR,,0.00,WeatherDisplay:10.37,2013-02-27 08:56:00,
2013-02-27 01:01:00,27.6,18.8,30.34,South,172,4.0,4.0,69,0.00,CLR,,0.00,WeatherDisplay:10.37,2013-02-27 09:01:00,
2013-02-27 01:06:00,27.5,18.7,30.34,South,173,6.0,6.0,69,0.00,CLR,,0.00,WeatherDisplay:10.37,2013-02-27 09:06:00,
2013-02-27 01:11:00,28.4,19.2,30.33,South,178,9.0,9.0,68,0.00,CLR,,0.00,WeatherDisplay:10.37,2013-02-27 09:11:00,
2013-02-27 01:16:00,28.7,19.1,30.33,South,178,5.0,5.0,67,0.00,CLR,,0.00,WeatherDisplay:10.37,2013-02-27 09:16:00,
2013-02-27 01:21:00,28.1,18.5,30.33,South,178,3.5,3.5,67,0.00,CLR,,0.00,WeatherDisplay:10.37,2013-02-27 09:21:00,
2013-02-27 01:26:00,27.1,18.3,30.34,South,178,3.5,3.5,69,0.00,CLR,,0.00,WeatherDisplay:10.37,2013-02-27 09:26:00,
2013-02-27 01:31:00,27.6,19.1,30.34,SSW,204,12.0,12.0,70,0.00,CLR,,0.00,WeatherDisplay:10.37,2013-02-27 09:31:00,
2013-02-27 01:36:00,28.1,18.9,30.33,South,188,11.5,11.5,68,0.00,CLR,,0.00,WeatherDisplay:10.37,2013-02-27 09:36:00,
2013-02-27 01:41:00,28.5,19.3,30.33,South,190,13.0,13.0,68,0.00,CLR,,0.00,WeatherDisplay:10.37,2013-02-27 09:41:00,
2013-02-27 01:46:00,28.3,19.1,30.33,South,188,12.7,12.7,68,0.00,CLR,,0.00,WeatherDisplay:10.37,2013-02-27 09:46:00,
2013-02-27 01:51:00,28.1,18.5,30.33,South,190,11.5,11.5,67,0.00,CLR,,0.00,WeatherDisplay:10.37,2013-02-27 09:51:00,
2013-02-27 01:56:00,28.0,18.5,30.33,South,187,11.5,11.5,67,0.00,CLR,,0.00,WeatherDisplay:10.37,2013-02-27 09:56:00,
2013-02-27 02:01:00,26.3,17.5,30.34,South,178,4.6,4.6,69,0.00,SCT,,0.00,WeatherDisplay:10.37,2013-02-27 10:01:00,
2013-02-27 02:06:00,27.3,18.8,30.34,South,187,10.4,10.4,70,0.00,SCT,,0.00,WeatherDisplay:10.37,2013-02-27 10:06:00,
2013-02-27 02:11:00,26.6,18.1,30.33,SE,139,6.0,6.0,70,0.00,SCT,,0.00,WeatherDisplay:10.37,2013-02-27 10:11:00,
2013-02-27 02:16:00,27.3,18.5,30.33,SE,133,5.8,5.8,69,0.00,SCT,,0.00,WeatherDisplay:10.37,2013-02-27 10:16:00,
2013-02-27 02:21:00,27.3,18.5,30.33,SE,134,2.3,2.3,69,0.00,SCT,,0.00,WeatherDisplay:10.37,2013-02-27 10:21:00,
2013-02-27 02:27:00,27.2,18.4,30.33,SE,134,0.0,0.0,69,0.00,SCT,,0.00,WeatherDisplay:10.37,2013-02-27 10:27:00,
2013-02-27 02:32:00,27.4,18.6,30.33,SE,134,1.1,1.1,69,0.00,SCT,,0.00,WeatherDisplay:10.37,2013-02-27 10:32:00,
2013-02-27 02:37:00,27.9,18.7,30.32,SSE,163,4.6,4.6,68,0.00,SCT,,0.00,WeatherDisplay:10.37,2013-02-27 10:37:00,
2013-02-27 02:42:00,28.3,18.7,30.32,South,169,5.0,5.0,67,0.00,SCT,,0.00,WeatherDisplay:10.37,2013-02-27 10:42:00,
2013-02-27 02:47:00,28.3,19.1,30.32,SSE,165,5.0,5.0,68,0.00,SCT,,0.00,WeatherDisplay:10.37,2013-02-27 10:47:00,
2013-02-27 02:52:00,27.9,18.7,30.32,SSE,164,3.5,3.5,68,0.00,SCT,,0.00,WeatherDisplay:10.37,2013-02-27 10:52:00,
2013-02-27 02:57:00,27.6,19.1,30.32,SSE,165,3.5,3.5,70,0.00,SCT,,0.00,WeatherDisplay:10.37,2013-02-27 10:57:00,
2013-02-27 03:02:00,27.6,19.1,30.32,SSE,163,4.6,4.6,70,0.00,SCT,,0.00,WeatherDisplay:10.37,2013-02-27 11:02:00,
2013-02-27 03:07:00,27.8,19.3,30.32,SSE,163,4.6,4.6,70,0.00,SCT,,0.00,WeatherDisplay:10.37,2013-02-27 11:07:00,
2013-02-27 03:12:00,27.8,19.3,30.31,SSE,163,5.0,5.0,70,0.00,SCT,,0.00,WeatherDisplay:10.37,2013-02-27 11:12:00,
2013-02-27 03:17:00,27.8,19.6,30.31,South,178,8.0,8.0,71,0.00,SCT,,0.00,WeatherDisplay:10.37,2013-02-27 11:17:00,
2013-02-27 03:22:00,28.8,20.6,30.31,South,186,10.4,10.4,71,0.00,CLR,,0.00,WeatherDisplay:10.37,2013-02-27 11:22:00,
2013-02-27 03:27:00,29.3,20.7,30.31,South,183,5.8,5.8,70,0.00,SCT,,0.00,WeatherDisplay:10.37,2013-02-27 11:27:00,
2013-02-27 03:32:00,29.0,20.8,30.31,South,182,4.6,4.6,71,0.00,SCT,,0.00,WeatherDisplay:10.37,2013-02-27 11:32:00,
2013-02-27 03:37:00,28.8,20.9,30.31,South,182,4.0,4.0,72,0.00,SCT,,0.00,WeatherDisplay:10.37,2013-02-27 11:37:00,
2013-02-27 03:42:00,28.9,20.7,30.31,South,182,3.5,3.8,71,0.00,SCT,,0.00,WeatherDisplay:10.37,2013-02-27 11:42:00,
2013-02-27 03:47:00,28.9,20.7,30.30,SSE,156,5.8,5.8,71,0.00,SCT,,0.00,WeatherDisplay:10.37,2013-02-27 11:47:00,
2013-02-27 03:52:00,29.0,21.1,30.31,South,182,6.9,6.9,72,0.00,SCT,,0.00,WeatherDisplay:10.37,2013-02-27 11:52:00,
2013-02-27 03:57:00,29.4,21.2,30.30,South,191,5.8,6.3,71,0.00,SCT,,0.00,WeatherDisplay:10.37,2013-02-27 11:57:00,
2013-02-27 04:02:00,29.4,21.2,30.30,South,191,5.8,6.3,71,0.00,OVC,,0.00,WeatherDisplay:10.37,2013-02-27 12:02:00,
2013-02-27 04:08:00,30.1,21.2,30.31,SW,216,10.4,10.4,69,0.00,OVC,,0.00,WeatherDisplay:10.37,2013-02-27 12:08:00,
2013-02-27 04:13:00,30.1,21.2,30.31,SW,217,6.9,7.2,69,0.00,OVC,,0.00,WeatherDisplay:10.37,2013-02-27 12:13:00,
2013-02-27 04:18:00,30.1,21.2,30.31,SW,217,6.9,7.2,69,0.00,OVC,,0.00,WeatherDisplay:10.37,2013-02-27 12:18:00,
2013-02-27 04:23:00,31.1,20.7,30.31,SSW,209,5.8,5.8,65,0.00,OVC,,0.00,WeatherDisplay:10.37,2013-02-27 12:23:00,
2013-02-27 04:28:00,31.1,20.7,30.31,SSW,209,5.8,5.8,65,0.00,OVC,,0.00,WeatherDisplay:10.37,2013-02-27 12:28:00,
2013-02-27 04:33:00,31.1,20.7,30.31,SSW,209,5.8,5.8,65,0.00,OVC,,0.00,WeatherDisplay:10.37,2013-02-27 12:33:00,
2013-02-27 04:38:00,31.2,20.8,30.32,SSW,207,5.8,5.8,65,0.00,OVC,,0.00,WeatherDisplay:10.37,2013-02-27 12:38:00,
2013-02-27 04:43:00,30.2,20.6,30.32,SSE,152,6.0,6.0,67,0.00,OVC,,0.00,WeatherDisplay:10.37,2013-02-27 12:43:00,
2013-02-27 04:48:00,29.5,20.6,30.32,SE,129,5.8,5.8,69,0.00,OVC,,0.00,WeatherDisplay:10.37,2013-02-27 12:48:00,
2013-02-27 04:53:00,29.9,20.3,30.32,SE,145,5.8,5.8,67,0.00,OVC,,0.00,WeatherDisplay:10.37,2013-02-27 12:53:00,
2013-02-27 04:58:00,29.9,20.3,30.32,SE,145,5.8,5.8,67,0.00,OVC,,0.00,WeatherDisplay:10.37,2013-02-27 12:58:00,
2013-02-27 05:03:00,29.9,20.3,30.32,SE,145,5.8,5.8,67,0.00,OVC,,0.00,WeatherDisplay:10.37,2013-02-27 13:03:00,
2013-02-27 05:08:00,29.4,20.8,30.32,SSE,160,8.1,8.1,70,0.00,OVC,,0.00,WeatherDisplay:10.37,2013-02-27 13:08:00,
2013-02-27 05:13:00,29.9,20.3,30.32,SE,145,5.8,5.8,67,0.00,OVC,,0.00,WeatherDisplay:10.37,2013-02-27 13:13:00,
2013-02-27 05:18:00,30.3,20.6,30.32,SSE,168,6.9,6.9,67,0.00,OVC,,0.00,WeatherDisplay:10.37,2013-02-27 13:18:00,
2013-02-27 05:23:00,30.1,20.5,30.33,South,169,10.4,10.4,67,0.00,OVC,,0.00,WeatherDisplay:10.37,2013-02-27 13:23:00,
2013-02-27 05:28:00,30.5,20.8,30.32,SSE,165,6.9,6.9,67,0.00,OVC,,0.00,WeatherDisplay:10.37,2013-02-27 13:28:00,
2013-02-27 05:33:00,30.5,20.8,30.32,SSE,165,6.9,6.9,67,0.00,OVC,,0.00,WeatherDisplay:10.37,2013-02-27 13:33:00,
2013-02-27 05:38:00,30.4,21.1,30.31,South,182,9.2,9.2,68,0.00,OVC,,0.00,WeatherDisplay:10.37,2013-02-27 13:38:00,
2013-02-27 05:43:00,30.2,20.6,30.33,SSW,195,9.2,9.2,67,0.00,OVC,,0.00,WeatherDisplay:10.37,2013-02-27 13:43:00,
2013-02-27 05:48:00,30.6,20.9,30.32,SSW,207,9.2,9.2,67,0.00,OVC,,0.00,WeatherDisplay:10.37,2013-02-27 13:48:00,
2013-02-27 05:53:00,30.1,20.5,30.33,SSW,210,6.9,6.9,67,0.00,OVC,,0.00,WeatherDisplay:10.37,2013-02-27 13:53:00,
2013-02-27 05:58:00,30.1,20.5,30.33,SSW,210,5.8,6.1,67,0.00,OVC,,0.00,WeatherDisplay:10.37,2013-02-27 13:58:00,
2013-02-27 06:03:00,30.1,20.5,30.33,SSW,210,5.8,6.1,67,0.00,BKN,,0.00,WeatherDisplay:10.37,2013-02-27 14:03:00,
2013-02-27 06:08:00,29.8,19.8,30.33,SW,228,11.5,11.5,66,0.00,BKN,,0.00,WeatherDisplay:10.37,2013-02-27 14:08:00,
2013-02-27 06:13:00,30.6,19.9,30.33,SW,225,11.5,12.0,64,0.00,BKN,,0.00,WeatherDisplay:10.37,2013-02-27 14:13:00,
2013-02-27 06:18:00,30.6,19.5,30.34,SW,225,11.5,11.5,63,0.00,BKN,,0.00,WeatherDisplay:10.37,2013-02-27 14:18:00,
2013-02-27 06:23:00,30.4,19.3,30.34,SW,223,11.5,11.5,63,0.00,BKN,,0.00,WeatherDisplay:10.37,2013-02-27 14:23:00,
2013-02-27 06:28:00,29.9,18.8,30.34,SW,227,10.4,10.4,63,0.00,BKN,,0.00,WeatherDisplay:10.37,2013-02-27 14:28:00,
2013-02-27 06:33:00,29.1,18.4,30.35,SW,229,9.2,9.2,64,0.00,BKN,,0.00,WeatherDisplay:10.37,2013-02-27 14:33:00,
2013-02-27 06:39:00,28.3,18.0,30.35,SW,217,10.4,10.4,65,0.00,BKN,,0.00,WeatherDisplay:10.37,2013-02-27 14:39:00,
2013-02-27 06:44:00,29.9,18.5,30.34,SSW,209,11.5,11.5,62,0.00,BKN,,0.00,WeatherDisplay:10.37,2013-02-27 14:44:00,
2013-02-27 06:49:00,30.8,18.5,30.34,SSW,210,11.5,11.5,60,0.00,BKN,,0.00,WeatherDisplay:10.37,2013-02-27 14:49:00,
2013-02-27 06:54:00,30.8,18.5,30.34,SSW,207,11.5,11.5,60,0.00,BKN,,0.00,WeatherDisplay:10.37,2013-02-27 14:54:00,
2013-02-27 06:59:00,29.9,18.1,30.34,SW,215,12.0,12.0,61,0.00,BKN,,0.00,WeatherDisplay:10.37,2013-02-27 14:59:00,
2013-02-27 07:04:00,29.1,17.7,30.35,SW,222,11.5,11.5,62,0.00,OVC,,0.00,WeatherDisplay:10.37,2013-02-27 15:04:00,
2013-02-27 07:09:00,29.7,18.3,30.35,SW,220,10.0,10.0,62,0.00,OVC,,0.00,WeatherDisplay:10.37,2013-02-27 15:09:00,
2013-02-27 07:14:00,28.1,17.5,30.36,SW,226,10.4,10.4,64,0.00,OVC,,0.00,WeatherDisplay:10.37,2013-02-27 15:14:00,
2013-02-27 07:19:00,29.0,18.7,30.36,WSW,239,11.5,11.5,65,0.00,OVC,,0.00,WeatherDisplay:10.37,2013-02-27 15:19:00,
2013-02-27 07:24:00,30.0,18.9,30.35,SW,215,17.3,17.3,63,0.00,OVC,,0.00,WeatherDisplay:10.37,2013-02-27 15:24:00,
2013-02-27 07:29:00,31.1,19.2,30.35,SW,219,13.8,13.8,61,0.00,OVC,,0.00,WeatherDisplay:10.37,2013-02-27 15:29:00,
2013-02-27 07:34:00,30.3,19.2,30.35,SW,225,18.4,18.4,63,0.00,OVC,,0.00,WeatherDisplay:10.37,2013-02-27 15:34:00,
2013-02-27 07:39:00,31.0,19.1,30.35,SW,227,17.3,17.3,61,0.00,OVC,,0.00,WeatherDisplay:10.37,2013-02-27 15:39:00,
2013-02-27 07:44:00,31.0,19.5,30.36,WSW,244,13.8,13.8,62,0.00,OVC,,0.00,WeatherDisplay:10.37,2013-02-27 15:44:00,
2013-02-27 07:49:00,31.0,19.5,30.36,SW,236,11.5,11.5,62,0.00,OVC,,0.00,WeatherDisplay:10.37,2013-02-27 15:49:00,
2013-02-27 07:54:00,30.5,19.8,30.36,SW,233,11.5,11.5,64,0.00,OVC,,0.00,WeatherDisplay:10.37,2013-02-27 15:54:00,
2013-02-27 07:59:00,30.2,19.5,30.36,WSW,240,11.5,11.5,64,0.00,OVC,,0.00,WeatherDisplay:10.37,2013-02-27 15:59:00,
2013-02-27 08:04:00,30.1,19.4,30.36,SW,234,13.0,13.0,64,0.00,OVC,,0.00,WeatherDisplay:10.37,2013-02-27 16:04:00,
2013-02-27 08:09:00,30.7,19.6,30.36,WSW,238,11.5,11.5,63,0.00,OVC,,0.00,WeatherDisplay:10.37,2013-02-27 16:09:00,
2013-02-27 08:14:00,30.9,19.4,30.37,SW,234,15.0,15.0,62,0.00,OVC,,0.00,WeatherDisplay:10.37,2013-02-27 16:14:00,
2013-02-27 08:19:00,31.2,19.3,30.37,SW,236,11.5,11.5,61,0.00,OVC,,0.00,WeatherDisplay:10.37,2013-02-27 16:19:00,
2013-02-27 08:24:00,30.9,19.8,30.37,SW,227,6.9,6.9,63,0.00,OVC,,0.00,WeatherDisplay:10.37,2013-02-27 16:24:00,
2013-02-27 08:29:00,30.6,19.5,30.37,SSW,210,10.0,10.0,63,0.00,OVC,,0.00,WeatherDisplay:10.37,2013-02-27 16:29:00,
2013-02-27 08:34:00,30.6,19.5,30.37,SW,221,9.2,9.2,63,0.00,OVC,,0.00,WeatherDisplay:10.37,2013-02-27 16:34:00,
2013-02-27 08:39:00,30.7,20.0,30.38,SSW,211,12.0,12.0,64,0.00,OVC,,0.00,WeatherDisplay:10.37,2013-02-27 16:39:00,
2013-02-27 08:44:00,31.3,19.8,30.38,SSW,209,11.5,11.5,62,0.00,OVC,,0.00,WeatherDisplay:10.37,2013-02-27 16:44:00,
2013-02-27 08:49:00,31.5,20.0,30.37,SSW,209,11.5,11.5,62,0.00,OVC,,0.00,WeatherDisplay:10.37,2013-02-27 16:49:00,
2013-02-27 08:54:00,32.0,20.1,30.37,SSW,205,11.5,11.5,61,0.00,OVC,,0.00,WeatherDisplay:10.37,2013-02-27 16:54:00,
2013-02-27 08:59:00,32.3,20.0,30.38,SSW,208,10.4,10.4,60,0.00,OVC,,0.00,WeatherDisplay:10.37,2013-02-27 16:59:00,
2013-02-27 09:04:00,32.3,20.0,30.38,SSW,203,10.4,10.4,60,0.00,OVC,,0.00,WeatherDisplay:10.37,2013-02-27 17:04:00,
2013-02-27 09:09:00,32.5,20.5,30.38,SSW,201,8.1,8.1,61,0.00,OVC,,0.00,WeatherDisplay:10.37,2013-02-27 17:09:00,
2013-02-27 09:14:00,32.6,20.6,30.38,SSW,200,6.0,6.0,61,0.00,OVC,,0.00,WeatherDisplay:10.37,2013-02-27 17:14:00,
2013-02-27 09:19:00,32.8,20.4,30.38,SSW,200,5.0,5.0,60,0.00,OVC,,0.00,WeatherDisplay:10.37,2013-02-27 17:19:00,
2013-02-27 09:24:00,33.1,20.7,30.38,SSW,201,4.6,4.6,60,0.00,OVC,,0.00,WeatherDisplay:10.37,2013-02-27 17:24:00,
2013-02-27 09:29:00,33.3,21.3,30.38,SSW,200,4.0,4.0,61,0.00,OVC,,0.00,WeatherDisplay:10.37,2013-02-27 17:29:00,
2013-02-27 09:34:00,33.1,22.2,30.38,SSW,200,6.0,6.0,64,0.00,OVC,,0.00,WeatherDisplay:10.37,2013-02-27 17:34:00,
2013-02-27 09:39:00,33.0,21.4,30.38,South,179,5.8,5.8,62,0.00,OVC,,0.00,WeatherDisplay:10.37,2013-02-27 17:39:00,
2013-02-27 09:44:00,33.0,21.8,30.38,SSW,200,6.9,6.9,63,0.00,OVC,,0.00,WeatherDisplay:10.37,2013-02-27 17:44:00,
2013-02-27 09:49:00,33.4,21.4,30.38,South,176,6.0,6.0,61,0.00,OVC,,0.00,WeatherDisplay:10.37,2013-02-27 17:49:00,
2013-02-27 09:54:00,33.5,22.6,30.38,South,187,5.0,5.0,64,0.00,OVC,,0.00,WeatherDisplay:10.37,2013-02-27 17:54:00,
2013-02-27 09:59:00,33.8,21.8,30.38,South,176,11.5,11.5,61,0.00,OVC,,0.00,WeatherDisplay:10.37,2013-02-27 17:59:00,
2013-02-27 10:04:00,34.4,22.7,30.38,South,182,7.0,7.0,62,0.00,OVC,,0.00,WeatherDisplay:10.37,2013-02-27 18:04:00,
2013-02-27 10:09:00,34.4,22.7,30.38,South,182,6.9,6.9,62,0.00,OVC,,0.00,WeatherDisplay:10.37,2013-02-27 18:09:00,
2013-02-27 10:14:00,34.9,22.0,30.37,South,188,5.8,5.8,59,0.00,OVC,,0.00,WeatherDisplay:10.37,2013-02-27 18:14:00,
2013-02-27 10:19:00,35.2,21.9,30.37,South,180,5.8,5.8,58,0.00,OVC,,0.00,WeatherDisplay:10.37,2013-02-27 18:19:00,
2013-02-27 10:24:00,35.5,22.2,30.37,SSW,196,9.2,9.2,58,0.00,OVC,,0.00,WeatherDisplay:10.37,2013-02-27 18:24:00,
2013-02-27 10:29:00,35.9,21.7,30.37,SSW,209,8.1,8.1,56,0.00,OVC,,0.00,WeatherDisplay:10.37,2013-02-27 18:29:00,
2013-02-27 10:34:00,36.4,21.8,30.37,SW,225,11.5,11.5,55,0.00,OVC,,0.00,WeatherDisplay:10.37,2013-02-27 18:34:00,
2013-02-27 10:39:00,37.2,22.1,30.36,West,262,19.6,19.6,54,0.00,OVC,,0.00,WeatherDisplay:10.37,2013-02-27 18:39:00,
2013-02-27 10:44:00,38.2,20.7,30.36,WSW,248,25.3,25.3,49,0.00,OVC,,0.00,WeatherDisplay:10.37,2013-02-27 18:44:00,
2013-02-27 10:49:00,38.3,21.3,30.36,SW,234,17.3,17.3,50,0.00,OVC,,0.00,WeatherDisplay:10.37,2013-02-27 18:49:00,
2013-02-27 10:54:00,38.6,20.6,30.35,WSW,256,19.6,19.6,48,0.00,OVC,,0.00,WeatherDisplay:10.37,2013-02-27 18:54:00,
2013-02-27 10:59:00,38.8,21.3,30.34,WSW,238,23.0,23.0,49,0.00,OVC,,0.00,WeatherDisplay:10.37,2013-02-27 18:59:00,
2013-02-27 11:04:00,39.0,21.4,30.34,WSW,256,19.6,19.6,49,0.00,CLR,,0.00,WeatherDisplay:10.37,2013-02-27 19:04:00,
2013-02-27 11:09:00,38.9,20.9,30.34,WSW,250,19.6,19.6,48,0.00,CLR,,0.00,WeatherDisplay:10.37,2013-02-27 19:09:00,
2013-02-27 11:14:00,39.1,21.0,30.34,SW,214,19.6,19.6,48,0.00,CLR,,0.00,WeatherDisplay:10.37,2013-02-27 19:14:00,
2013-02-27 11:19:00,38.9,20.9,30.34,WSW,248,24.2,24.2,48,0.00,CLR,,0.00,WeatherDisplay:10.37,2013-02-27 19:19:00,
2013-02-27 11:24:00,38.7,20.7,30.34,WSW,253,20.0,20.0,48,0.00,CLR,,0.00,WeatherDisplay:10.37,2013-02-27 19:24:00,
2013-02-27 11:29:00,38.8,20.3,30.34,WSW,238,25.3,25.3,47,0.00,CLR,,0.00,WeatherDisplay:10.37,2013-02-27 19:29:00,
2013-02-27 11:34:00,39.1,20.0,30.34,West,261,21.9,21.9,46,0.00,CLR,,0.00,WeatherDisplay:10.37,2013-02-27 19:34:00,
2013-02-27 11:39:00,39.0,20.5,30.34,WSW,248,20.7,20.7,47,0.00,CLR,,0.00,WeatherDisplay:10.37,2013-02-27 19:39:00,
2013-02-27 11:45:00,38.9,20.4,30.34,West,265,29.9,29.9,47,0.00,CLR,,0.00,WeatherDisplay:10.37,2013-02-27 19:45:00,
2013-02-27 11:50:00,38.9,20.9,30.34,West,263,19.6,19.6,48,0.00,CLR,,0.00,WeatherDisplay:10.37,2013-02-27 19:50:00,
2013-02-27 11:55:00,39.0,20.9,30.34,West,263,21.9,21.9,48,0.00,CLR,,0.00,WeatherDisplay:10.37,2013-02-27 19:55:00,
2013-02-27 12:00:00,39.3,21.7,30.34,West,265,22.0,22.0,49,0.00,CLR,,0.00,WeatherDisplay:10.37,2013-02-27 20:00:00,
2013-02-27 12:05:00,39.1,21.5,30.34,West,281,26.5,26.5,49,0.00,CLR,,0.00,WeatherDisplay:10.37,2013-02-27 20:05:00,
2013-02-27 12:10:00,39.3,21.7,30.34,WSW,247,18.4,18.4,49,0.00,CLR,,0.00,WeatherDisplay:10.37,2013-02-27 20:10:00,
2013-02-27 12:15:00,39.6,22.0,30.33,WSW,252,19.6,19.6,49,0.00,CLR,,0.00,WeatherDisplay:10.37,2013-02-27 20:15:00,
2013-02-27 12:20:00,39.4,21.3,30.34,West,265,17.3,17.3,48,0.00,CLR,,0.00,WeatherDisplay:10.37,2013-02-27 20:20:00,
2013-02-27 12:25:00,39.5,21.4,30.34,West,279,18.4,18.4,48,0.00,CLR,,0.00,WeatherDisplay:10.37,2013-02-27 20:25:00,
2013-02-27 12:30:00,39.5,21.9,30.33,West,275,19.6,19.6,49,0.00,CLR,,0.00,WeatherDisplay:10.37,2013-02-27 20:30:00,
2013-02-27 12:35:00,39.4,21.8,30.33,West,280,19.6,19.6,49,0.00,CLR,,0.00,WeatherDisplay:10.37,2013-02-27 20:35:00,
2013-02-27 12:40:00,39.1,22.0,30.34,WNW,283,11.5,11.5,50,0.00,CLR,,0.00,WeatherDisplay:10.37,2013-02-27 20:40:00,
2013-02-27 12:45:00,39.2,22.6,30.34,WNW,289,16.1,16.1,51,0.00,CLR,,0.00,WeatherDisplay:10.37,2013-02-27 20:45:00,
2013-02-27 12:50:00,39.5,21.9,30.33,West,279,18.4,18.4,49,0.00,CLR,,0.00,WeatherDisplay:10.37,2013-02-27 20:50:00,
2013-02-27 12:55:00,39.3,22.7,30.34,West,271,15.0,15.0,51,0.00,CLR,,0.00,WeatherDisplay:10.37,2013-02-27 20:55:00,
2013-02-27 13:00:00,39.3,24.0,30.34,West,281,13.8,13.8,54,0.00,CLR,,0.00,WeatherDisplay:10.37,2013-02-27 21:00:00,
2013-02-27 13:05:00,39.1,22.9,30.33,West,279,15.0,15.0,52,0.00,CLR,,0.00,WeatherDisplay:10.37,2013-02-27 21:05:00,
2013-02-27 13:10:00,39.2,21.6,30.33,West,269,16.1,16.1,49,0.00,CLR,,0.00,WeatherDisplay:10.37,2013-02-27 21:10:00,
2013-02-27 13:15:00,39.5,21.9,30.33,West,267,15.0,15.0,49,0.00,CLR,,0.00,WeatherDisplay:10.37,2013-02-27 21:15:00,
2013-02-27 13:20:00,40.2,24.4,30.33,West,273,9.2,9.2,53,0.00,CLR,,0.00,WeatherDisplay:10.37,2013-02-27 21:20:00,
2013-02-27 13:25:00,41.3,25.0,30.32,West,279,5.8,5.8,52,0.00,CLR,,0.00,WeatherDisplay:10.37,2013-02-27 21:25:00,
2013-02-27 13:30:00,42.4,24.6,30.32,West,279,6.9,6.9,49,0.00,CLR,,0.00,WeatherDisplay:10.37,2013-02-27 21:30:00,
2013-02-27 13:35:00,41.2,23.9,30.32,West,273,9.2,9.2,50,0.00,CLR,,0.00,WeatherDisplay:10.37,2013-02-27 21:35:00,
2013-02-27 13:40:00,41.1,23.9,30.32,West,281,5.8,5.8,50,0.00,CLR,,0.00,WeatherDisplay:10.37,2013-02-27 21:40:00,
2013-02-27 13:45:00,42.2,24.9,30.31,West,273,7.0,7.0,50,0.00,CLR,,0.00,WeatherDisplay:10.37,2013-02-27 21:45:00,
2013-02-27 13:50:00,41.7,26.7,30.31,West,271,2.3,2.3,55,0.00,CLR,,0.00,WeatherDisplay:10.37,2013-02-27 21:50:00,
2013-02-27 13:55:00,42.1,24.8,30.32,West,271,3.5,3.5,50,0.00,CLR,,0.00,WeatherDisplay:10.37,2013-02-27 21:55:00,
2013-02-27 14:00:00,41.9,24.1,30.31,West,279,4.0,4.0,49,0.00,CLR,,0.00,WeatherDisplay:10.37,2013-02-27 22:00:00,
2013-02-27 14:05:00,42.3,24.0,30.31,West,279,11.5,11.5,48,0.00,CLR,,0.00,WeatherDisplay:10.37,2013-02-27 22:05:00,
2013-02-27 14:10:00,41.8,24.0,30.31,West,275,5.8,5.8,49,0.00,CLR,,0.00,WeatherDisplay:10.37,2013-02-27 22:10:00,
2013-02-27 14:15:00,42.2,26.3,30.31,West,277,4.0,4.0,53,0.00,CLR,,0.00,WeatherDisplay:10.37,2013-02-27 22:15:00,
2013-02-27 14:20:00,43.3,25.9,30.31,West,277,3.5,3.5,50,0.00,CLR,,0.00,WeatherDisplay:10.37,2013-02-27 22:20:00,
2013-02-27 14:25:00,42.6,23.8,30.31,West,264,9.2,9.2,47,0.00,CLR,,0.00,WeatherDisplay:10.37,2013-02-27 22:25:00,
2013-02-27 14:30:00,41.5,25.2,30.31,West,281,5.8,5.8,52,0.00,CLR,,0.00,WeatherDisplay:10.37,2013-02-27 22:30:00,
2013-02-27 14:35:00,42.0,25.6,30.32,WNW,282,3.5,3.5,52,0.00,CLR,,0.00,WeatherDisplay:10.37,2013-02-27 22:35:00,
2013-02-27 14:40:00,42.5,25.6,30.32,West,279,7.0,7.1,51,0.00,CLR,,0.00,WeatherDisplay:10.37,2013-02-27 22:40:00,
2013-02-27 14:45:00,41.5,24.2,30.32,West,281,4.6,4.6,50,0.00,CLR,,0.00,WeatherDisplay:10.37,2013-02-27 22:45:00,
2013-02-27 14:50:00,41.2,25.3,30.33,West,278,5.8,5.8,53,0.00,CLR,,0.00,WeatherDisplay:10.37,2013-02-27 22:50:00,
2013-02-27 14:55:00,41.2,25.8,30.33,West,277,1.1,1.1,54,0.00,CLR,,0.00,WeatherDisplay:10.37,2013-02-27 22:55:00,
2013-02-27 15:00:00,41.8,26.4,30.31,West,278,1.1,0.0,54,0.00,CLR,,0.00,WeatherDisplay:10.37,2013-02-27 23:00:00,
2013-02-27 15:05:00,42.1,26.2,30.31,WNW,289,10.4,10.4,53,0.00,CLR,,0.00,WeatherDisplay:10.37,2013-02-27 23:05:00,
2013-02-27 15:10:00,42.2,25.3,30.32,WNW,288,3.5,3.5,51,0.00,CLR,,0.00,WeatherDisplay:10.37,2013-02-27 23:10:00,
2013-02-27 15:15:00,42.2,25.3,30.32,WNW,289,2.3,2.3,51,0.00,CLR,,0.00,WeatherDisplay:10.37,2013-02-27 23:15:00,
2013-02-27 15:20:00,42.4,25.5,30.32,WNW,288,2.3,2.3,51,0.00,CLR,,0.00,WeatherDisplay:10.37,2013-02-27 23:20:00,
2013-02-27 15:25:00,42.7,25.8,30.32,WNW,288,2.0,2.0,51,0.00,CLR,,0.00,WeatherDisplay:10.37,2013-02-27 23:25:00,
2013-02-27 15:30:00,42.7,25.8,30.32,WNW,289,1.1,1.1,51,0.00,CLR,,0.00,WeatherDisplay:10.37,2013-02-27 23:30:00,
2013-02-27 15:35:00,42.5,24.7,30.32,West,277,5.8,5.8,49,0.00,CLR,,0.00,WeatherDisplay:10.37,2013-02-27 23:35:00,
2013-02-27 15:40:00,42.1,25.7,30.32,West,277,1.1,1.1,52,0.00,CLR,,0.00,WeatherDisplay:10.37,2013-02-27 23:40:00,
2013-02-27 15:45:00,42.4,25.5,30.32,West,277,3.0,3.0,51,0.00,CLR,,0.00,WeatherDisplay:10.37,2013-02-27 23:45:00,
2013-02-27 15:50:00,42.3,25.0,30.32,West,268,6.9,6.9,50,0.00,CLR,,0.00,WeatherDisplay:10.37,2013-02-27 23:50:00,
2013-02-27 15:55:00,42.0,25.2,30.32,West,268,2.3,2.3,51,0.00,CLR,,0.00,WeatherDisplay:10.37,2013-02-27 23:55:00,
2013-02-27 16:00:00,41.4,24.6,30.32,West,276,5.8,5.8,51,0.00,CLR,,0.00,WeatherDisplay:10.37,2013-02-28 00:00:00,
2013-02-27 16:05:00,41.2,23.9,30.32,West,276,5.8,5.8,50,0.00,CLR,,0.00,WeatherDisplay:10.37,2013-02-28 00:05:00,
2013-02-27 16:10:00,40.9,24.6,30.32,West,276,2.3,2.3,52,0.00,CLR,,0.00,WeatherDisplay:10.37,2013-02-28 00:10:00,
2013-02-27 16:15:00,40.6,24.3,30.33,West,276,3.5,3.5,52,0.00,CLR,,0.00,WeatherDisplay:10.37,2013-02-28 00:15:00,
2013-02-27 16:20:00,40.4,23.7,30.32,West,276,0.0,0.0,51,0.00,CLR,,0.00,WeatherDisplay:10.37,2013-02-28 00:20:00,
2013-02-27 16:25:00,40.5,23.3,30.32,West,276,0.0,0.0,50,0.00,CLR,,0.00,WeatherDisplay:10.37,2013-02-28 00:25:00,
2013-02-27 16:30:00,40.6,23.9,30.32,West,276,0.0,0.0,51,0.00,CLR,,0.00,WeatherDisplay:10.37,2013-02-28 00:30:00,
2013-02-27 16:36:00,40.6,23.9,30.32,West,276,0.0,0.0,51,0.00,CLR,,0.00,WeatherDisplay:10.37,2013-02-28 00:36:00,
2013-02-27 16:41:00,40.8,23.6,30.32,West,276,3.5,3.5,50,0.00,CLR,,0.00,WeatherDisplay:10.37,2013-02-28 00:41:00,
2013-02-27 16:46:00,40.9,23.2,30.32,West,276,3.5,3.5,49,0.00,CLR,,0.00,WeatherDisplay:10.37,2013-02-28 00:46:00,
2013-02-27 16:51:00,41.1,22.9,30.32,West,276,2.3,2.3,48,0.00,CLR,,0.00,WeatherDisplay:10.37,2013-02-28 00:51:00,
2013-02-27 16:56:00,41.2,23.5,30.32,West,276,2.3,2.3,49,0.00,CLR,,0.00,WeatherDisplay:10.37,2013-02-28 00:56:00,
2013-02-27 17:01:00,41.1,23.4,30.31,West,276,2.3,2.3,49,0.00,CLR,,0.00,WeatherDisplay:10.37,2013-02-28 01:01:00,
2013-02-27 17:06:00,41.0,23.3,30.31,West,276,1.1,1.1,49,0.00,CLR,,0.00,WeatherDisplay:10.37,2013-02-28 01:06:00,
2013-02-27 17:11:00,38.8,23.1,30.32,SSE,159,3.5,3.5,53,0.00,CLR,,0.00,WeatherDisplay:10.37,2013-02-28 01:11:00,
2013-02-27 17:16:00,37.4,22.7,30.32,SSE,159,3.5,3.5,55,0.00,CLR,,0.00,WeatherDisplay:10.37,2013-02-28 01:16:00,
2013-02-27 17:21:00,37.7,23.0,30.33,SSE,159,1.1,1.1,55,0.00,CLR,,0.00,WeatherDisplay:10.37,2013-02-28 01:21:00,
2013-02-27 17:26:00,38.0,22.8,30.33,SSE,159,2.3,2.3,54,0.00,CLR,,0.00,WeatherDisplay:10.37,2013-02-28 01:26:00,
2013-02-27 17:31:00,37.1,23.3,30.34,South,187,3.5,3.5,57,0.00,CLR,,0.00,WeatherDisplay:10.37,2013-02-28 01:31:00,
2013-02-27 17:36:00,36.4,23.0,30.34,South,188,2.3,2.3,58,0.00,CLR,,0.00,WeatherDisplay:10.37,2013-02-28 01:36:00,
2013-02-27 17:41:00,36.3,22.9,30.34,South,188,0.0,0.0,58,0.00,CLR,,0.00,WeatherDisplay:10.37,2013-02-28 01:41:00,
2013-02-27 17:46:00,36.5,22.7,30.33,South,187,0.0,0.0,57,0.00,CLR,,0.00,WeatherDisplay:10.37,2013-02-28 01:46:00,
2013-02-27 17:51:00,36.3,22.9,30.34,South,188,1.1,1.1,58,0.00,CLR,,0.00,WeatherDisplay:10.37,2013-02-28 01:51:00,
2013-02-27 17:56:00,36.1,22.7,30.34,South,188,0.0,0.0,58,0.00,CLR,,0.00,WeatherDisplay:10.37,2013-02-28 01:56:00,
2013-02-27 18:01:00,35.6,22.7,30.34,South,188,2.3,2.3,59,0.00,CLR,,0.00,WeatherDisplay:10.37,2013-02-28 02:01:00,
2013-02-27 18:06:00,35.2,22.3,30.34,South,187,3.5,3.5,59,0.00,CLR,,0.00,WeatherDisplay:10.37,2013-02-28 02:06:00,
2013-02-27 18:11:00,34.3,22.6,30.34,South,187,5.0,5.0,62,0.00,CLR,,0.00,WeatherDisplay:10.37,2013-02-28 02:11:00,
2013-02-27 18:16:00,34.2,22.1,30.35,South,186,2.3,2.3,61,0.00,CLR,,0.00,WeatherDisplay:10.37,2013-02-28 02:16:00,
2013-02-27 18:21:00,34.4,22.3,30.35,SSW,199,3.5,3.5,61,0.00,CLR,,0.00,WeatherDisplay:10.37,2013-02-28 02:21:00,
2013-02-27 18:26:00,33.5,21.9,30.34,SSW,199,4.0,4.0,62,0.00,CLR,,0.00,WeatherDisplay:10.37,2013-02-28 02:26:00,
2013-02-27 18:31:00,32.6,21.8,30.35,SSW,209,4.0,4.0,64,0.00,CLR,,0.00,WeatherDisplay:10.37,2013-02-28 02:31:00,
2013-02-27 18:36:00,31.6,20.8,30.35,South,184,9.2,9.2,64,0.00,CLR,,0.00,WeatherDisplay:10.37,2013-02-28 02:36:00,
2013-02-27 18:41:00,33.4,21.8,30.35,South,184,4.6,4.6,62,0.00,CLR,,0.00,WeatherDisplay:10.37,2013-02-28 02:41:00,
2013-02-27 18:46:00,32.9,21.3,30.35,SSW,194,2.3,2.3,62,0.00,CLR,,0.00,WeatherDisplay:10.37,2013-02-28 02:46:00,
2013-02-27 18:51:00,33.3,21.7,30.34,SSW,194,0.0,0.0,62,0.00,CLR,,0.00,WeatherDisplay:10.37,2013-02-28 02:51:00,
2013-02-27 18:56:00,34.4,21.9,30.34,SSW,194,0.0,0.0,60,0.00,CLR,,0.00,WeatherDisplay:10.37,2013-02-28 02:56:00,
2013-02-27 19:01:00,35.0,22.1,30.34,SSW,194,2.3,2.3,59,0.00,,,0.00,WeatherDisplay:10.37,2013-02-28 03:01:00,
2013-02-27 19:06:00,34.2,21.4,30.34,SSW,194,0.0,0.0,59,0.00,,,0.00,WeatherDisplay:10.37,2013-02-28 03:06:00,
2013-02-27 19:11:00,33.0,21.4,30.34,SSW,201,3.5,3.5,62,0.00,,,0.00,WeatherDisplay:10.37,2013-02-28 03:11:00,
2013-02-27 19:16:00,31.8,21.0,30.34,SSW,200,3.5,3.5,64,0.00,,,0.00,WeatherDisplay:10.37,2013-02-28 03:16:00,
2013-02-27 19:21:00,30.8,21.1,30.35,SSW,201,3.5,3.5,67,0.00,,,0.00,WeatherDisplay:10.37,2013-02-28 03:21:00,
2013-02-27 19:26:00,31.5,21.4,30.35,SSW,201,3.5,3.5,66,0.00,,,0.00,WeatherDisplay:10.37,2013-02-28 03:26:00,
2013-02-27 19:31:00,32.0,21.6,30.35,SSW,200,3.5,3.5,65,0.00,,,0.00,WeatherDisplay:10.37,2013-02-28 03:31:00,
2013-02-27 19:36:00,32.2,21.7,30.34,SSW,201,3.5,3.5,65,0.00,,,0.00,WeatherDisplay:10.37,2013-02-28 03:36:00,
2013-02-27 19:41:00,33.7,22.4,30.33,SSW,200,4.0,4.0,63,0.00,,,0.00,WeatherDisplay:10.37,2013-02-28 03:41:00,
2013-02-27 19:46:00,33.3,21.7,30.34,SSW,200,3.5,3.5,62,0.00,,,0.00,WeatherDisplay:10.37,2013-02-28 03:46:00,
2013-02-27 19:51:00,32.0,21.6,30.34,SSW,201,3.5,3.5,65,0.00,,,0.00,WeatherDisplay:10.37,2013-02-28 03:51:00,
2013-02-27 19:56:00,32.2,21.7,30.34,SSW,201,3.5,3.5,65,0.00,,,0.00,WeatherDisplay:10.37,2013-02-28 03:56:00,
2013-02-27 20:01:00,32.5,22.4,30.33,SSW,201,3.5,3.5,66,0.00,OVC,,0.00,WeatherDisplay:10.37,2013-02-28 04:01:00,
2013-02-27 20:06:00,32.8,22.3,30.33,SSW,201,2.3,2.3,65,0.00,OVC,,0.00,WeatherDisplay:10.37,2013-02-28 04:06:00,
2013-02-27 20:11:00,32.8,22.3,30.33,SSW,201,3.0,3.0,65,0.00,OVC,,0.00,WeatherDisplay:10.37,2013-02-28 04:11:00,
2013-02-27 20:16:00,33.0,22.1,30.33,SSW,200,3.5,3.5,64,0.00,OVC,,0.00,WeatherDisplay:10.37,2013-02-28 04:16:00,
2013-02-27 20:21:00,33.5,22.2,30.33,WSW,242,5.0,5.0,63,0.00,OVC,,0.00,WeatherDisplay:10.37,2013-02-28 04:21:00,
2013-02-27 20:26:00,34.4,21.9,30.33,West,259,4.6,4.6,60,0.00,OVC,,0.00,WeatherDisplay:10.37,2013-02-28 04:26:00,
2013-02-27 20:31:00,34.4,22.3,30.33,West,259,5.0,5.0,61,0.00,OVC,,0.00,WeatherDisplay:10.37,2013-02-28 04:31:00,
2013-02-27 20:36:00,34.4,21.9,30.33,SW,231,5.0,5.0,60,0.00,OVC,,0.00,WeatherDisplay:10.37,2013-02-28 04:36:00,
2013-02-27 20:41:00,34.9,22.0,30.32,SW,221,6.9,6.9,59,0.00,OVC,,0.00,WeatherDisplay:10.37,2013-02-28 04:41:00,
2013-02-27 20:46:00,36.1,22.3,30.32,SW,219,9.2,9.2,57,0.00,OVC,,0.00,WeatherDisplay:10.37,2013-02-28 04:46:00,
2013-02-27 20:51:00,35.6,22.3,30.32,SSW,213,9.2,9.2,58,0.00,OVC,,0.00,WeatherDisplay:10.37,2013-02-28 04:51:00,
2013-02-27 20:56:00,36.1,23.1,30.32,SW,227,6.9,6.9,59,0.00,OVC,,0.00,WeatherDisplay:10.37,2013-02-28 04:56:00,
2013-02-27 21:00:00,35.7,22.4,30.31,SW,227,5.0,5.0,58,0.00,OVC,,0.00,WeatherDisplay:10.37,2013-02-28 05:00:00,
2013-02-27 21:05:00,36.2,21.6,30.31,WSW,250,7.0,7.0,55,0.00,OVC,,0.00,WeatherDisplay:10.37,2013-02-28 05:05:00,
2013-02-27 21:10:00,37.5,21.9,30.31,WSW,251,8.1,8.1,53,0.00,OVC,,0.00,WeatherDisplay:10.37,2013-02-28 05:10:00,
2013-02-27 21:15:00,37.9,21.8,30.31,WSW,257,9.0,9.0,52,0.00,OVC,,0.00,WeatherDisplay:10.37,2013-02-28 05:15:00,
2013-02-27 21:20:00,38.2,21.6,30.31,West,271,8.0,8.0,51,0.00,OVC,,0.00,WeatherDisplay:10.37,2013-02-28 05:20:00,
2013-02-27 21:25:00,38.3,21.7,30.30,WSW,245,6.9,6.9,51,0.00,OVC,,0.00,WeatherDisplay:10.37,2013-02-28 05:25:00,
2013-02-27 21:30:00,38.4,21.4,30.30,WSW,247,11.5,11.5,50,0.00,OVC,,0.00,WeatherDisplay:10.37,2013-02-28 05:30:00,
2013-02-27 21:35:00,38.3,21.7,30.30,WSW,248,9.2,9.2,51,0.00,OVC,,0.00,WeatherDisplay:10.37,2013-02-28 05:35:00,
2013-02-27 21:40:00,38.1,21.5,30.30,WSW,244,11.5,11.5,51,0.00,OVC,,0.00,WeatherDisplay:10.37,2013-02-28 05:40:00,
2013-02-27 21:45:00,38.0,21.9,30.29,SW,234,9.2,9.2,52,0.00,OVC,,0.00,WeatherDisplay:10.37,2013-02-28 05:45:00,
2013-02-27 21:50:00,37.5,21.9,30.28,South,188,6.0,6.0,53,0.00,OVC,,0.00,WeatherDisplay:10.37,2013-02-28 05:50:00,
2013-02-27 21:55:00,37.4,21.8,30.29,SSW,204,10.4,10.4,53,0.00,OVC,,0.00,WeatherDisplay:10.37,2013-02-28 05:55:00,
2013-02-27 22:00:00,37.7,21.2,30.26,SW,232,11.5,11.5,51,0.00,OVC,,0.00,WeatherDisplay:10.37,2013-02-28 06:00:00,
2013-02-27 22:05:00,37.3,22.2,30.27,WSW,242,6.9,6.9,54,0.00,OVC,,0.00,WeatherDisplay:10.37,2013-02-28 06:05:00,
2013-02-27 22:10:00,36.9,22.2,30.27,WSW,240,10.4,10.4,55,0.00,OVC,,0.00,WeatherDisplay:10.37,2013-02-28 06:10:00,
2013-02-27 22:15:00,36.7,22.5,30.27,WSW,248,9.2,9.2,56,0.00,OVC,,0.00,WeatherDisplay:10.37,2013-02-28 06:15:00,
2013-02-27 22:20:00,36.5,22.7,30.27,West,270,11.0,11.0,57,0.00,OVC,,0.00,WeatherDisplay:10.37,2013-02-28 06:20:00,
2013-02-27 22:25:00,36.8,22.1,30.27,WSW,253,11.5,11.5,55,0.00,OVC,,0.00,WeatherDisplay:10.37,2013-02-28 06:25:00,
2013-02-27 22:30:00,36.6,22.4,30.27,WSW,257,11.5,11.5,56,0.00,OVC,,0.00,WeatherDisplay:10.37,2013-02-28 06:30:00,
2013-02-27 22:35:00,37.0,22.3,30.27,WSW,248,12.7,12.7,55,0.00,OVC,,0.00,WeatherDisplay:10.37,2013-02-28 06:35:00,
2013-02-27 22:40:00,37.1,22.0,30.27,WSW,248,13.0,13.0,54,0.00,OVC,,0.00,WeatherDisplay:10.37,2013-02-28 06:40:00,
2013-02-27 22:45:00,37.6,21.5,30.28,West,263,15.0,15.0,52,0.00,OVC,,0.00,WeatherDisplay:10.37,2013-02-28 06:45:00,
2013-02-27 22:50:00,37.5,21.9,30.29,West,276,13.0,13.0,53,0.00,OVC,,0.00,WeatherDisplay:10.37,2013-02-28 06:50:00,
2013-02-27 22:55:00,37.7,23.0,30.29,West,277,9.2,9.2,55,0.00,OVC,,0.00,WeatherDisplay:10.37,2013-02-28 06:55:00,
2013-02-27 23:00:00,37.4,23.1,30.29,West,277,3.5,3.5,56,0.00,OVC,,0.00,WeatherDisplay:10.37,2013-02-28 07:00:00,
2013-02-27 23:05:00,37.0,22.7,30.29,West,275,8.1,8.1,56,0.00,OVC,,0.00,WeatherDisplay:10.37,2013-02-28 07:05:00,
2013-02-27 23:10:00,37.1,22.0,30.29,West,276,10.4,10.4,54,0.00,OVC,,0.00,WeatherDisplay:10.37,2013-02-28 07:10:00,
2013-02-27 23:15:00,37.0,23.6,30.30,West,268,4.6,4.6,58,0.00,OVC,,0.00,WeatherDisplay:10.37,2013-02-28 07:15:00,
2013-02-27 23:20:00,36.7,23.7,30.30,West,274,0.0,2.9,59,0.00,OVC,,0.00,WeatherDisplay:10.37,2013-02-28 07:20:00,
2013-02-27 23:25:00,36.5,24.3,30.30,WNW,283,9.2,9.2,61,0.00,OVC,,0.00,WeatherDisplay:10.37,2013-02-28 07:25:00,
2013-02-27 23:31:00,36.5,24.3,30.30,WNW,283,0.0,0.0,61,0.00,OVC,,0.00,WeatherDisplay:10.37,2013-02-28 07:31:00,
2013-02-27 23:36:00,36.4,24.6,30.30,WNW,283,2.3,2.3,62,0.00,OVC,,0.00,WeatherDisplay:10.37,2013-02-28 07:36:00,
2013-02-27 23:41:00,36.2,24.8,30.30,WNW,283,2.0,2.0,63,0.00,OVC,,0.00,WeatherDisplay:10.37,2013-02-28 07:41:00,
2013-02-27 23:46:00,36.1,24.7,30.31,WNW,283,0.0,0.0,63,0.00,OVC,,0.00,WeatherDisplay:10.37,2013-02-28 07:46:00,
2013-02-27 23:51:00,36.1,25.1,30.31,WNW,283,0.0,0.0,64,0.00,OVC,,0.00,WeatherDisplay:10.37,2013-02-28 07:51:00,
2013-02-27 23:56:00,36.0,25.4,30.32,WNW,283,0.0,0.0,65,0.00,OVC,,0.00,WeatherDisplay:10.37,2013-02-28 07:56:00,